User: anonymous   Login
Location: Epalinges
(46.5518°N, 6.6683°E)
Time: 20:21:19
(UTC+00:00)
Language:

Cosmos 1125 Rocket - Orbit

View from above orbital plane
View from above orbital plane
View from above satellite
View from above satellite

Ground track
Ground track

The orbit data is extracted from the following two-line orbital elements,

1 11511U 79078B   21270.58263841  .00000058  00000-0  28288-4 0  9994
2 11511  74.0365 321.3674 0015652 187.9701 172.1206 14.36940551202870
Epoch (UTC): 27 September 2021 13:58:59
Eccentricity: 0.0015652
inclination: 74.0365°
perigee height: 757 km
apogee height: 780 km
right ascension of ascending node: 321.3674°
argument of perigee: 187.9701°
revolutions per day: 14.36940551
mean anomaly at epoch: 172.1206°
orbit number at epoch: 20287

The dashed part of the orbit path shows where the satellite is in the earth's shadow,  

DLR